Regional Weather Roundup
Issued by NWS

Home | Current Version | Previous Version | Text Only | Print | Product List | Glossary Off
Versions: 1 2 3 4 5 6 7 8 9 10 11 12 13 14 15 16 17 18 19 20 21 22 23 24 25 26 27 28 29 30 31 32 33 34 35 36 37 38 39 40 41 42 43 44 45 46 47 48 49 50

000
ASUS43 KMPX 221201
RWRMN
WEATHER ROUNDUP FOR MINNESOTA
NATIONAL WEATHER SERVICE TWIN CITIES/CHANHASSEN MN
700 AM CDT TUE AUG 22 2017


NOTE: "FAIR" INDICATES FEW OR NO CLOUDS BELOW 12,000 FEET WITH NO
SIGNIFICANT WEATHER AND/OR OBSTRUCTIONS TO VISIBILITY. N/A MEANS
CURRENT SKY AND/OR WEATHER CONDITIONS ARE NOT AVAILABLE.

MNZ060>063-068>070-221300-
   Twin Cities Metro

CITY           SKY/WX    TMP DP  RH WIND       PRES   REMARKS
TWIN CITIES    CLEAR     60  54  80 NW14      29.98R
6HR MIN TEMP:  60; 6HR MAX TEMP:  67;

ST PAUL        CLEAR     60  56  86 NW13      29.97R
CRYSTAL        CLEAR     58  52  80 NW12      29.97R
BLAINE         CLEAR     61  57  88 NW12      29.98R
LAKEVILLE      CLEAR     57  57 100 NW6       29.99R
EDEN PRAIRIE   CLEAR     61  54  77 NW13      29.97R
6HR MIN TEMP:  61; 6HR MAX TEMP:  67;

SOUTH ST PAUL  CLEAR     61  56  85 NW7       29.97R
LAKE ELMO      FAIR      59  55  88 NW8       29.97R
$$
MNZ001>005-007-008-013>017-022>024-027-028-221300-
   Northwest Minnesota

CITY           SKY/WX    TMP DP  RH WIND       PRES   REMARKS
BEMIDJI        CLEAR     48  46  93 W6        29.98S
HALLOCK        CLEAR     46  45  93 CALM      29.99S
ROSEAU         CLEAR     48  43  81 W9        29.96S
WARROAD        PTCLDY    46  45  93 W7        29.95R
CROOKSTON      CLEAR     46  43  87 NW6       30.03R
FOSSTON        CLEAR     43  41  93 SW5       30.01S
DETROIT LAKES  CLEAR     52  46  82 W7        30.04R
MOORHEAD       CLEAR     52  46  82 NW7       30.05R
PARK RAPIDS    CLEAR     50  47  89 W6        30.00S
MAHNOMEN       FAIR      44  44  99 SW3       30.02R
$$
MNZ006-009>011-018-025>026-221300-
   North Central Minnesota

CITY           SKY/WX    TMP DP  RH WIND       PRES   REMARKS
BAUDETTE       CLEAR     50  48  93 W7        29.93R
FLAG ISLAND      N/A     54  48  82 W7        29.91R
INTL FALLS     CLOUDY    50  48  93 W5        29.90R
6HR MIN TEMP:  49; 6HR MAX TEMP:  52;

WASKISH        CLEAR     55  50  82 W12G21    29.94R
BIG FORK       FOG       46  45  93 CALM      29.93S VSB 1/4
LONGVILLE      CLEAR     54  52  94 SW5       29.97S
GRAND RAPIDS   CLEAR     53  51  93 NW8       29.97R
CRANE LAKE     PTCLDY    50  48  93 CALM      29.91S
ORR            PTCLDY    52  48  87 W3        29.89S
COOK           MOCLDY    50  50 100 W6        29.92R
WALKER         FAIR      49  47  95 W6        29.99R
$$
MNZ012-019>021-037-221300-
   Northeast Minnesota

CITY           SKY/WX    TMP DP  RH WIND       PRES   REMARKS
DULUTH         MOCLDY    52  52 100 NW7       29.92R
6HR MIN TEMP:  51; 6HR MAX TEMP:  56;

ELY            PTCLDY    54  52  94 W9        29.89R
HIBBING        CLEAR     51  49  92 NW9       29.93R
EVELETH        PTCLDY    53  48  84 NW7       29.93R
DULUTH HARBOR  CLEAR     57  54  88 NW13      29.92R
TWO HARBORS    CLEAR     57  52  82 CALM      29.88R
GRAND MARAIS     N/A     57  53  86 VRB5      29.80R
$$
MNZ029>031-032-039>041-046>048-054>057-064-221300-
   West Central Minnesota

CITY           SKY/WX    TMP DP  RH WIND       PRES   REMARKS
FERGUS FALLS   CLEAR     46  46 100 W5        30.06R
WHEATON        CLEAR     54  48  82 W6        30.09R
MORRIS         CLEAR     50  48  93 NW6       30.07R
ALEXANDRIA     CLEAR     52  51  97 W8        30.06R
ELBOW LAKE     FAIR      49  49 100 NW5       30.06R
WADENA         CLEAR     48  48 100 W5        30.02R
GLENWOOD       CLEAR     52  50  93 NW8       30.05R
APPLETON       CLEAR     50  46  87 CALM      30.07R
BENSON         CLEAR     48  46  93 W3        30.08R
ORTONVILLE     CLEAR     52  48  87 MISG      30.08R
MADISON        CLEAR     52  52 100 W6        30.08S
WILLMAR        FAIR      54  52  94 W8        30.07R
$$
MNZ033>034-036-042>043-049>051-058-059-221300-
   Central Minnesota

CITY           SKY/WX    TMP DP  RH WIND       PRES   REMARKS
ST CLOUD       CLEAR     53  52  96 NW7       30.01R
6HR MIN TEMP:  53; 6HR MAX TEMP:  63;

SAUK CENTRE    FAIR      51  51  97 CALM      30.04R
PAYNESVILLE    CLEAR     50  50 100 W5        30.05R
AITKIN         CLEAR     52  50  93 W3        29.97R
PINE RIVER     CLEAR     48  46  93 CALM      30.02S
BRAINERD       CLEAR     53  51  93 W6        30.00R
STAPLES        CLEAR     46  46 100 CALM      30.02R
LONG PRAIRIE   FAIR      52  50  93 W6        30.04R
LITTLE FALLS   CLEAR     50  48  93 CALM      30.02R
LITCHFIELD     CLEAR     57  55  94 NW8       30.04R
BUFFALO        CLEAR     57  51  82 NW8       30.02R
MAPLE LAKE     CLEAR     57  54  89 NW8       30.02R
HUTCHINSON     CLEAR     56  54  92 NW6       30.04R
$$
MNZ037-044-045-052-053-221300-
   East Central Minnesota

CITY           SKY/WX    TMP DP  RH WIND       PRES   REMARKS
PRINCETON      CLEAR     55  54  94 W8        30.00R
MORA           CLEAR     54  50  87 W5        30.00R
CAMBRIDGE      CLEAR     57  55  94 W8        29.99R
RUSH CITY      PTCLDY    55  52  89 NW3       29.98R FOG
MOOSE LAKE     CLEAR     52  50  93 CALM      29.94R
HINCKLEY       FAIR      55  54  94 W5        29.97R
CLOQUET        CLEAR     52  48  87 W7        29.94R
MCGREGOR       CLEAR     52  52 100 W6        29.98R
$$
MNZ071>073-080-081-089-090-097-098-221300-
   Southwest Minnesota

CITY           SKY/WX    TMP DP  RH WIND       PRES   REMARKS
MONTEVIDEO     CLEAR     52  52 100 NW6       30.08R
GRANITE FALLS  CLEAR     52  51  97 W6        30.09R
CANBY          CLEAR     53  49  85 CALM      30.11R
MARSHALL       CLEAR     51  49  92 NW9       30.09R
REDWOOD FALLS  CLEAR     54  51  90 NW9       30.06R
OLIVIA         CLEAR     54  52  94 NW6       30.05R
PIPESTONE      CLEAR     54  50  87 NW7       30.12R
WINDOM         CLEAR     54  52  94 NW6       30.07R
WORTHINGTON    CLEAR     53  50  89 NW7       30.10R
JACKSON        CLEAR     54  52  94 CALM      30.08R
TRACY          CLEAR     54  52  92 NW7       30.09R
SLAYTON        CLEAR     51  46  84 NW8       30.10R
$$
MNZ065>067-074>077-082>085-091>093-221300-
   South Central Minnesota

CITY           SKY/WX    TMP DP  RH WIND       PRES   REMARKS
MANKATO        CLEAR     57  55  93 NW7       30.02R
NEW ULM        CLEAR     55  54  94 NW9       30.04R
ST JAMES       CLEAR     55  54  94 W7        30.06R
FAIRMONT       CLEAR     57  54  89 NW12      30.05R
GLENCOE        CLEAR     57  56  97 NW9       30.01R
FARIBAULT      CLEAR     57  55  94 NW6       30.00R
OWATONNA       CLEAR     57  55  94 NW8       30.00R
WASECA         CLEAR     55  54  94 NW7       30.02R
ALBERT LEA     CLEAR     61  61 100 NW7       30.00R
$$
MNZ078>079-086>088-094>096-221300-
   Southeast Minnesota

CITY           SKY/WX    TMP DP  RH WIND       PRES   REMARKS
ROCHESTER      PTCLDY    59  59 100 NW12      29.97R
6HR MIN TEMP:  59; 6HR MAX TEMP:  64;

RED WING       MOCLDY    63  57  82 NW8       29.94R
STANTON        CLEAR     60  57  90 NW7       29.97R
DODGE CENTER   CLEAR     59  55  88 NW10      29.98R
WINONA         PTCLDY    63  59  88 NW8       29.93R
AUSTIN         CLEAR     59  55  88 NW7       29.98R
PRESTON        CLEAR     59  57  93 NW13      29.96R
$$
ABBREVIATIONS USED IN REMARKS
   TC - TEMPERATURES IN CELSIUS
  WCI - WIND CHILL INDEX
   HX - HEAT INDEX
  VSB - VISIBILITY
$$




USA.gov is the U.S. government's official web portal to all federal, state and local government web resources and services.